Find Starlink 35832

NORAD ID: 66495 Int'l Des: 2025-263 Owner: SPXS Country: US Constellation: starlink operational
LEOCIRCULAR

現在のビュー

3D地球を読み込み中...

Starlink 35832について

説明を読み込み中...

次回通過

Passes for default location (London). Set your location on the main map for personalized predictions.

高度履歴

Loading altitude history...

軌道要素

1 66495U 25263L 26146.06546002 .00008280 00000-0 31000-3 0 9995
2 66495 42.9909 273.6287 0000907 66.1865 293.9081 15.27586954 30735
Epoch: May 26, 2026 • Age: 14 hours

現在のステータス

高度 493.2 km
速度 7.62 km/s
衛星直下点 -34.62°S, 106.96°E
打ち上げ日 Nov 15, 2025
運用期間 0.5 years
タイプ internet

技術仕様

分類 Payload
質量 575.00 kg
乾燥質量 530.00 kg
総質量 575.00 kg
長さ 0.30 m
直径 4.10 m
スパン 29.00 m
形状 Box + pan
製造者 SPXS
バスタイプ Starlink V2MO
フェーズステータス In Orbit
所有者/国 SPXS/US

Most Searched